This is the latest recevied weather packets stored in our database for station/object KD8ZLZ. If no packets are shown the sender has not sent any weather packets the latest 10 day(s).
| Time | Temp. | Humidity | Pressure | Rain* | Wind** | Luminosity | Snow |
|---|---|---|---|---|---|---|---|
| 1777153247 | 12.22° C | 75% | 1016.1 hPa | 0 mm | - | - | - |
| 1777152927 | 12.22° C | 75% | 1015.8 hPa | 0 mm | - | - | - |
| 1777151728 | 12.22° C | 75% | 1015.7 hPa | 0 mm | - | - | - |
| 1777150227 | 12.22° C | 74% | 1015.7 hPa | 0 mm | - | - | - |
| 1777149627 | 12.22° C | 74% | 1015.3 hPa | 0 mm | - | - | - |
| 1777149347 | 12.22° C | 74% | 1015.3 hPa | 0 mm | - | - | - |
| 1777148427 | 12.22° C | 74% | 1015.3 hPa | 0 mm | - | - | - |
| 1777146927 | 12.78° C | 73% | 1015.3 hPa | 0 mm | - | - | - |
| 1777146327 | 12.78° C | 73% | 1015 hPa | 0 mm | - | - | - |
| 1777145728 | 12.22° C | 73% | 1015 hPa | 0 mm | - | - | - |
| 1777144227 | 12.78° C | 73% | 1014.7 hPa | 0 mm | - | - | - |
| 1777143347 | 12.78° C | 73% | 1014.7 hPa | 0 mm | - | - | - |
| 1777140027 | 12.22° C | 77% | 1014.7 hPa | 0 mm | - | - | - |
| 1777139427 | 12.22° C | 76% | 1014.7 hPa | 0 mm | - | - | - |
| 1777139127 | 12.22° C | 76% | 1014.7 hPa | 0 mm | - | - | - |
| 1777138827 | 11.67° C | 78% | 1014.7 hPa | 0 mm | - | - | - |
| 1777138227 | 11.67° C | 77% | 1014.7 hPa | 0 mm | - | - | - |
| 1777134627 | 12.78° C | 81% | 1014.1 hPa | 0 mm | - | - | - |
| 1777132527 | 12.78° C | 82% | 1013.7 hPa | 0 mm | - | - | - |
| 1777131047 | 12.78° C | 84% | 1013.4 hPa | 0 mm | - | - | - |
| 1777130128 | 13.33° C | 82% | 1013.1 hPa | 0 mm | - | - | - |
| 1777129847 | 13.33° C | 83% | 1013.1 hPa | 0 mm | - | - | - |
| 1777129227 | 12.78° C | 84% | 1013 hPa | 0 mm | - | - | - |
| 1777128927 | 12.78° C | 85% | 1013 hPa | 0 mm | - | - | - |
| 1777127448 | 13.33° C | 83% | 1013.1 hPa | 0 mm | - | - | - |
* Rain latest hour (hover to see other rain measurements)
** Current wind speed in m/s (hover to see current wind gust speed)